Location: Newark
(54.6833°N, 25.2833°E)
Time: 12:26:41
(UTC+00:00)

S-56A Canister/Altair - Visible Passes

Search period start: 21 January 2021 00:00
Search period end: 31 January 2021 00:00
Orbit: 633 x 2499 km, 38.9° (Epoch: 20 January)

Date Brightness Start Highest point End Pass type
(mag) Time Alt. Az. Time Alt. Az. Time Alt. Az.
21 Jan 9.8 02:48:37 12° SSE 02:48:37 12° SSE 02:50:22 10° SE visible
21 Jan 9.8 04:47:35 10° SW 04:50:41 15° S 04:54:19 10° SSE visible
22 Jan 9.7 04:15:24 10° SW 04:18:11 15° S 04:21:20 10° SSE visible
23 Jan 9.5 03:44:16 12° SSW 03:45:41 14° S 03:48:24 10° SSE visible
24 Jan 9.6 03:13:23 13° S 03:13:23 13° S 03:15:31 10° SSE visible
25 Jan 9.9 02:42:29 10° SSE 02:42:29 10° SSE 02:42:41 10° SSE visible
